Isachsen, Nunavut

11:43 AM MST on February 26, 2017 (GMT -0700)
Isachsen

Weather History for CWIC - September, 2013

Change the Weather History Date:

Monday, September 30, 2013

  Actual Average Record
Temperature  
Mean Temperature 16 °F -  
Max Temperature 22 °F - - ()
Min Temperature 12 °F - - ()
Degree Days  
Heating Degree Days 50    
Moisture  
Dew Point 16 °F    
Average Humidity 95    
Maximum Humidity 97    
Minimum Humidity 91    
Precipitation  
Precipitation 0.01 in - - ()
Sea Level Pressure  
Sea Level Pressure 29.86 in    
Wind  
Wind Speed 4 mph ()    
Max Wind Speed 9 mph    
Max Gust Speed -    
T = Trace of Precipitation, MM = Missing Value Source: Averaged Metar Reports

Daily Weather History Graph

Daily Weather History Graph

Search for Another Location

Airport or City:

Trip Planner

Search our weather history database for the weather conditions in past years. The results will help you decide how hot, cold, wet, or windy it might be!

Date:

Astronomy

Sep. 30, 2013 Rise Set
Actual Time 7:27 AM MDT 5:56 PM MDT
Civil Twilight 5:39 AM MDT 7:43 PM MDT
Nautical Twilight 3:06 AM MDT 10:10 PM MDT
Astronomical Twilight Sun does not rise Sun does not rise
Moon No Moon Rise 7:37 PM MDT (9/30)
Length of Visible Light 14h 03m
Length of Day
10h 29m
Waning Crescent, 18% of the Moon is Illuminated
Sep 30
Waning Crescent
Oct 4
New
Oct 11
First Quarter
Oct 18
Full
Oct 26
Last Quarter

Hourly Weather History & Observations

Time (MDT) Temp. Windchill Dew Point Humidity Pressure Visibility Wind Dir Wind Speed Gust Speed Precip Events Conditions
12:00 AM 19 °F - 18 °F 94% 29.84 in - SSE 9.2 mph - -  
12:00 AM 19.0 °F 9.0 °F 18.1 °F 96% 29.84 in - SSE 8.1 mph - N/A   Unknown
1:00 AM 19.0 °F 11.1 °F 18.1 °F 96% 29.85 in - SE 5.8 mph - N/A   Unknown
2:00 AM 19.0 °F 11.1 °F 18.1 °F 96% 29.85 in - ESE 5.8 mph - N/A   Unknown
3:00 AM 19.0 °F 11.1 °F 18.1 °F 96% 29.85 in - ESE 5.8 mph - N/A   Unknown
4:00 AM 19.0 °F 12.3 °F 18.1 °F 96% 29.85 in - ESE 4.6 mph - N/A   Unknown
5:00 AM 19.0 °F 13.9 °F 18.1 °F 96% 29.84 in - South 3.5 mph - N/A   Unknown
6:00 AM 19 °F - 18 °F 93% 29.84 in - South 3.5 mph - -  
6:00 AM 18.9 °F 13.7 °F 17.8 °F 96% 29.84 in - South 3.5 mph - N/A   Unknown
7:00 AM 18.5 °F - 17.6 °F 96% 29.84 in - SSE 2.3 mph - N/A   Unknown
8:00 AM 18.1 °F - 17.1 °F 96% 29.84 in - Calm Calm - N/A   Unknown
9:00 AM 17.4 °F - 16.2 °F 95% 29.84 in - Calm Calm - N/A   Unknown
2:00 PM 12.0 °F - 10.6 °F 94% 29.86 in - Calm Calm - N/A   Unknown
3:00 PM 13.6 °F - 12.2 °F 94% 29.88 in - Calm Calm - N/A   Unknown
4:00 PM 14.4 °F - 13.3 °F 95% 29.88 in - Calm Calm - N/A   Unknown
5:00 PM 15.8 °F - 14.7 °F 95% 29.89 in - Calm Calm - N/A   Unknown
6:00 PM 15 °F - 13 °F 91% 29.90 in - WSW 2.3 mph - -  
6:00 PM 14.9 °F - 13.6 °F 95% 29.90 in - WSW 2.3 mph - 0.01 in   Unknown
7:00 PM 14.5 °F - 13.3 °F 95% 29.91 in - Calm Calm - N/A   Unknown
8:00 PM 16.2 °F - 15.1 °F 95% 29.91 in - Calm Calm - N/A   Unknown
9:00 PM 16.7 °F - 15.6 °F 96% 29.91 in - Calm Calm - N/A   Unknown
10:00 PM 22.1 °F 12.0 °F 21.4 °F 97% - - NNW 9.2 mph - N/A   Unknown